Home   Weather   Asyut   Past weeks
Flag for Egypt

Past Weather in Asyut, Egypt — Yesterday and Last 2 Weeks

Now
70 °F

Clear.


Feels Like: 70 °F
Forecast: 96 / 71 °F
Wind: 10 mph from Northwest

Location: Asyut Airport

Current Time: Oct 16, 2019 at 4:58:03 am

Latest Report: Oct 16, 2019 at 4:00 am


Visibility: 10 mi

Pressure: 30.01 "Hg

Humidity: 73%

Dew Point: 61 °F

Location of AsyutLocation

Past Weather in Asyut — Graph

°F

Asyut Temperature Yesterday

Maximum temperature yesterday: 90 °F (at 2:00 pm)
Minimum temperature yesterday: 68 °F (at 5:00 am)
Average temperature yesterday: 79 °F

High & Low Weather Summary for the Past Weeks

 TemperatureHumidityPressure
High102 °F (Oct 9, 3:00 pm)88% (Oct 11, 5:00 am)30.07 "Hg (Oct 11, 5:00 am)
Low66 °F (Oct 2, 6:00 am)20% (Oct 9, 3:00 pm)29.86 "Hg (Oct 5, 4:00 pm)
Average82 °F46%29.96 "Hg
* Reported Oct 1 3:00 am — Oct 16 3:00 am, Asyut. Weather by CustomWeather, © 2019

Note: Actual official high and low records may vary slightly from our data, if they occured in-between our weather recording intervals... More about our weather records

Advertising

Asyut Weather History for the Previous 24 Hours

Scroll right to see more
 ConditionsComfort  
Time TempWeatherWind HumidityBarometerVisibility
3:00 am
Wed, Oct 16
72 °FClear.9 mph73%30.01 "Hg10 mi
1:00 am73 °FClear.5 mph65%30.01 "Hg10 mi
12:00 am75 °FClear.6 mph57%30.01 "Hg10 mi
11:00 pm
Tue, Oct 15
77 °FClear.7 mph54%30.01 "Hg10 mi
10:00 pm77 °FClear.8 mph51%30.01 "Hg10 mi
9:00 pm79 °FClear.12 mph48%30.01 "Hg10 mi
8:00 pm81 °FClear.12 mph45%29.98 "Hg10 mi
7:00 pm86 °FClear.14 mph43%29.98 "Hg10 mi
6:00 pm88 °FClear.15 mph35%29.95 "Hg10 mi
5:00 pm90 °FSunny.16 mph36%29.95 "Hg10 mi
3:00 pm90 °FSunny.16 mph38%29.95 "Hg10 mi
2:00 pm90 °FSunny.12 mph46%30.04 "Hg10 mi
1:00 pm86 °FSunny.12 mph52%29.98 "Hg10 mi
12:00 pm86 °FSunny.16 mph49%30.01 "Hg10 mi
11:00 am84 °FSunny.12 mph55%30.04 "Hg10 mi
10:00 am81 °FScattered clouds.9 mph58%30.04 "HgN/A
9:00 am77 °FScattered clouds.12 mph65%30.04 "HgN/A
8:00 am73 °FScattered clouds.12 mph65%30.01 "HgN/A
7:00 am72 °FSunny.12 mph61%29.98 "Hg10 mi
6:00 am70 °FSunny.No wind69%29.98 "Hg10 mi
5:00 am68 °FClear.No wind73%29.98 "Hg10 mi
4:00 am70 °FClear.12 mph64%30.01 "Hg10 mi
Weather by CustomWeather, © 2019

See weather overview